{"data":{"norad_id":60316,"intl_designator":"2024-133R","name":"STARLINK-32192","alt_names":[],"object_type":"PAYLOAD","status":"ACTIVE","operator":null,"country":"US","launch_date":"2024-07-28","launch_site_code":"AFWTR","launch_vehicle":null,"mission":null,"orbit_class":"UNKNOWN","rcs_meters":null,"size_class":null,"mass_kg":null,"dimensions":null,"purposes":["comms"],"wikipedia_slug":null,"has_3d_model":false,"image_url":null,"decayed_at":null,"tle_current":{"epoch":"2026-09-21T20:27:09.097632Z","epoch_age_seconds":68813,"freshness":"FRESH","line1":"1 60316U 24133R   26264.85218863  .00001731  00000+0  62390-4 0  9995","line2":"2 60316  53.1586 103.0749 0001033  98.3505 261.7615 15.34378130121802","mean_motion":15.3437813,"eccentricity":0.0001033,"inclination_deg":53.1586,"raan_deg":103.0749,"arg_perigee_deg":98.3505,"mean_anomaly_deg":261.7615,"bstar":6.239e-5,"rev_number":12180,"period_min":93.849095724533,"perigee_km":462.06157771645,"apogee_km":463.4749087397,"semimajor_km":6840.9052432281,"source":"CELESTRAK","updated_at":"2026-09-22T09:00:49.217168Z"}}}